[[{"header":{"parameterUnit":"m.s-1","parameterCategory":1,"la1":30.2991,"la2":30.254,"lo1":-89.0895,"lo2":-89.0444,"dy":0.0017,"dx":0.0017,"nx":28,"ny":28,"refTime":"2024-11-30T03:00:00:Z","depth":0,"parameterNumber":2,"parameterNumberName":"U-component_of_WINDS"},"data":[0,0,0,0,0,0,0,0,0,0,0,0,0,0,0,0,0,0,0,0,0,0,0,0,0,0,0,0,0,0,0,0,0,0,0,0,0,0,0,0,0,0,0,0,0,0,0,0,0,0,0,0,0,0,0,0,0,0,-4.7807,-4.7808,0,-4.7882,-4.7883,-4.7884,-4.7713,-4.7707,-4.7702,-4.7697,-4.7775,-4.7782,-4.7789,0,0,0,0,0,0,0,0,0,0,0,0,0,-4.7515,-4.7522,-4.7807,-4.7808,-4.7809,-4.7882,-4.7883,-4.7884,-4.7714,-4.7707,-4.7701,-4.7694,-4.7773,-4.7781,-4.779,0,0,0,0,0,0,0,0,0,0,0,0,0,-4.7622,-4.7524,-4.7807,-4.7733,-4.7727,-4.7882,-4.7883,-4.7884,-4.7715,-4.7707,-4.7699,-4.7691,-4.777,-4.778,-4.7791,-4.8022,0,0,-4.7824,-4.7829,0,0,0,0,0,0,0,0,-4.7616,-4.7632,-4.7743,-4.7738,-4.7732,-4.778,-4.7809,-4.7931,-4.7717,-4.772,-4.7697,-4.7687,-4.7783,-4.7793,-4.7825,-4.8026,-4.8029,-4.7825,-4.7832,-4.7836,-4.7839,0,0,0,0,0,0,0,-4.7609,-4.7628,-4.7837,-4.7744,-4.7738,-4.7695,-4.7702,-4.7831,-4.7797,-4.7719,-4.7707,-4.7718,-4.7779,-4.7815,-4.7825,-4.803,-4.7825,-4.7834,-4.7841,-4.7845,-4.8423,-4.8431,0,0,0,0,0,0,-4.7611,-4.7623,-4.7834,-4.7839,-4.7652,-4.7707,-4.7714,-4.7773,-4.7795,-4.779,-4.7725,-4.771,-4.78,-4.7813,-4.7828,-4.8099,-4.7836,-4.7846,-4.7852,-4.8414,-4.8425,-4.8435,0,0,0,0,0,0,-4.7605,-4.7631,-4.7831,-4.7728,-4.775,-4.7721,-4.7788,-4.7779,-4.7814,-4.7799,-4.7792,-4.7768,-4.7794,-4.7812,-4.7975,-4.8099,-4.7851,-4.7861,-4.8404,-4.8418,-4.843,-4.8645,0,0,0,0,0,0,-4.7597,-4.763,-4.7718,-4.7731,-4.7756,-4.7978,-4.7796,-4.7786,-4.7833,-4.7814,-4.7838,-4.7834,-4.7789,-4.7959,-4.7985,-4.811,-4.7869,-4.8392,-4.841,-4.8426,-4.8626,-4.8664,-4.8695,0,0,0,0,0,-4.7588,-4.7776,-4.7723,-4.775,-4.7865,-4.7986,-4.8,-4.7945,-4.7844,-4.7932,-4.7922,-4.7833,-4.8081,-4.7978,-4.8005,-4.8135,-4.8384,-4.8405,-4.8424,-4.8611,-4.8656,-4.8695,0,0,0,0,0,0,-4.7779,-4.7776,-4.7718,-4.7916,-4.7952,-4.7956,-4.8066,-4.7995,-4.806,-4.804,-4.7968,-4.7975,-4.8151,-4.8158,-4.8043,-4.8359,-4.8216,-4.8242,-4.8348,-4.8391,-4.8425,-4.842,-4.7878,0,0,0,0,0,-4.7844,-4.7942,-4.7934,-4.811,-4.8131,-4.8096,-4.8146,-4.81,-4.8135,-4.8149,-4.8151,-4.8189,-4.8274,-4.8333,-4.8411,-4.8626,-4.8628,-4.8728,-4.8763,-4.8791,-4.8816,-4.8929,-4.8973,-4.85,-4.85,-4.85,0,0,-4.798,-4.799,-4.8057,-4.8148,-4.8171,-4.8274,-4.811,-4.8226,-4.8301,-4.8167,-4.832,-4.8323,-4.836,-4.8549,-4.8633,-4.8561,-4.8946,-4.8817,-4.884,-4.8848,-4.8954,-4.8999,-4.9039,-4.8514,-4.8511,-4.8509,0,0,-4.828,-4.8298,-4.8446,-4.8472,-4.8508,-4.8483,-4.8518,-4.8533,-4.853,-4.8682,-4.8583,-4.8672,-4.8822,-4.8852,-4.8887,-4.9197,-4.9118,-4.9224,-4.9406,-4.9517,-4.9555,-4.9587,-4.9698,-4.9739,-4.9248,-4.9248,-4.9249,0,-4.8445,-4.8596,-4.8531,-4.8654,-4.8697,-4.8579,-4.8728,-4.8756,-4.8816,-4.8849,-4.8767,-4.8952,-4.8968,-4.9163,-4.9238,-4.927,-4.9309,-4.9222,-4.9554,-4.9586,-4.9616,-4.9721,-4.9763,-4.9261,-4.926,-4.9258,-4.9257,0,-4.8796,-4.8903,-4.9018,-4.9078,-4.9134,-4.9269,-4.9225,-4.9289,-4.9238,-4.9221,-4.9378,-4.9393,-4.9472,-4.9514,-4.9466,-4.9702,-4.9656,-4.9566,-4.9421,-4.9675,-4.9772,-4.9812,-4.9279,-4.9275,-4.9271,-4.9268,0,0,-4.9221,-4.9243,-4.9287,-4.9312,-4.9342,-4.9423,-4.9553,-4.9629,-4.9686,-4.9731,-4.9838,-4.9966,-4.9882,-4.9922,-4.9875,-4.9973,-5.0218,-4.987,-4.9869,-4.9935,-5.0479,-5.0548,-5.0596,-5.0164,-5.0172,-5.0178,-5.0476,0,-4.9519,-4.9741,-4.9686,-4.9907,-5.0004,-4.9892,-5.0005,-5.0036,-5.0024,-5.0104,-5.009,-5.0182,-5.0064,-5.0087,-5.0179,-5.0169,-5.0326,-5.0146,-5.0264,-5.0269,-5.026,-5.0647,-5.072,-5.1001,-5.0514,-5.052,-5.0525,0,-4.9896,-4.9955,-5.0186,-5.0199,-5.0237,-5.034,-5.0405,-5.0483,-5.0515,-5.0499,-5.0544,-5.0477,-5.0604,-5.0457,-5.0632,-5.0511,-5.0555,-5.0557,-5.0566,-5.0576,-5.0413,-5.0668,-5.1089,-5.1132,-5.0584,-5.0579,-5.0575,0,-5.0184,-5.0321,-5.0476,-5.0501,-5.0521,-5.0595,-5.0607,-5.063,-5.068,-5.0736,-5.0768,-5.0839,-5.0879,-5.0935,-5.0889,-5.0786,-5.1071,-5.092,-5.1062,-5.1064,-5.1128,-5.1125,-5.1564,-5.1156,-5.1155,-5.1155,-5.1154,0,-5.0522,-5.0668,-5.0605,-5.0702,-5.0861,-5.0795,-5.0955,-5.0953,-5.0975,-5.1069,-5.0976,-5.1065,-5.0999,-5.1083,-5.1047,-5.1197,-5.1216,-5.1206,-5.1196,-5.1216,-5.1217,-5.1245,-5.1225,-5.1166,-5.1163,-5.1161,-5.1159,0,-5.0872,-5.0835,-5.0997,-5.1002,-5.1006,-5.1124,-5.1127,-5.1216,-5.1196,-5.1315,-5.1339,-5.1309,-5.1402,-5.1361,-5.146,-5.1436,-5.1629,-5.1592,-5.1619,-5.161,-5.1754,-5.1741,-5.2227,-5.2287,-5.184,-5.1844,-5.1847,0,-5.1091,-5.12,-5.1216,-5.1272,-5.1289,-5.138,-5.143,-5.1369,-5.1424,-5.1468,-5.1552,-5.1637,-5.1702,-5.1857,-5.1843,-5.1918,-5.1882,-5.2047,-5.1893,-5.191,-5.1886,-5.188,-5.1891,-5.2079,-5.2084,-5.2088,-5.2092,0,-5.1484,-5.146,-5.1535,-5.1604,-5.1665,-5.1717,-5.176,-5.1811,-5.1751,-5.1818,-5.1913,-5.1963,-5.2063,-5.2149,-5.2215,-5.2226,-5.215,-5.214,-5.2177,-5.2199,-5.2211,-5.2207,-5.1704,-5.213,-5.2126,-5.2123,-5.2121,-5.212,-5.1775,-5.1867,-5.1892,-5.1978,-5.2004,-5.2046,-5.213,-5.212,-5.2197,-5.2274,-5.2232,-5.2343,-5.237,-5.245,-5.2472,-5.2557,-5.2492,-5.2545,-5.2559,-5.2573,-5.2592,-5.2196,-5.2568,-5.2567,-5.2566,-5.2565,-5.2564,0,-5.2164,-5.2174,-5.2254,-5.2317,-5.2385,-5.2306,-5.2349,-5.2411,-5.2509,-5.2541,-5.2607,-5.2715,-5.2797,-5.2789,-5.2865,-5.2934,-5.2902,-5.2957,-5.2951,-5.2955,-5.2646,-5.2607,-5.2982,-5.2982,-5.2982,-5.2982,-5.2982,-5.2981,-5.2374,-5.2525,-5.2504,-5.2666,-5.2675,-5.2782,-5.2814,-5.2852,-5.2877,-5.3002,-5.307,-5.3064,-5.308,-5.3155,-5.3227,-5.3222,-5.3255,-5.3324,-5.3307,-5.3018,-5.2977,-5.2938,-5.29,-5.3331,-5.3331,-5.3608,-5.3611,-5.3613]},{"header":{"parameterUnit":"m.s-1","parameterCategory":1,"la1":30.2991,"la2":30.254,"lo1":-89.0895,"lo2":-89.0444,"dy":0.0017,"dx":0.0017,"nx":28,"ny":28,"refTime":"2024-11-30T03:00:00:Z","depth":0,"parameterNumber":3,"parameterNumberName":"V-component_of_WINDS"},"data":[0,0,0,0,0,0,0,0,0,0,0,0,0,0,0,0,0,0,0,0,0,0,0,0,0,0,0,0,0,0,0,0,0,0,0,0,0,0,0,0,0,0,0,0,0,0,0,0,0,0,0,0,0,0,0,0,0,0,-4.9856,-4.9856,0,-4.9916,-4.9917,-4.9918,-4.9848,-4.9846,-4.9843,-4.9841,-4.9899,-4.9903,-4.9907,0,0,0,0,0,0,0,0,0,0,0,0,0,-4.9675,-4.9678,-4.9856,-4.9856,-4.9857,-4.9916,-4.9917,-4.9918,-4.9849,-4.9845,-4.9842,-4.9839,-4.9898,-4.9903,-4.9907,0,0,0,0,0,0,0,0,0,0,0,0,0,-4.9746,-4.968,-4.9855,-4.983,-4.9828,-4.9916,-4.9917,-4.9918,-4.9849,-4.9845,-4.9842,-4.9838,-4.9896,-4.9902,-4.9908,-5.0023,0,0,-4.9926,-4.9929,0,0,0,0,0,0,0,0,-4.9742,-4.9753,-4.9833,-4.9832,-4.983,-4.9871,-4.9875,-4.9953,-4.985,-4.9841,-4.984,-4.9836,-4.9893,-4.9899,-4.9918,-5.0026,-5.0028,-4.9927,-4.993,-4.9933,-4.9935,0,0,0,0,0,0,0,-4.9737,-4.975,-4.9879,-4.9834,-4.9832,-4.9813,-4.9819,-4.9889,-4.9888,-4.9842,-4.9837,-4.9845,-4.9891,-4.9913,-4.9919,-5.0029,-4.9927,-4.9932,-4.9936,-4.9938,-5.023,-5.0234,0,0,0,0,0,0,-4.9736,-4.9746,-4.9877,-4.9881,-4.9776,-4.982,-4.9826,-4.9862,-4.9887,-4.9887,-4.9848,-4.9842,-4.9905,-4.9912,-4.9921,-5.0055,-4.9933,-4.9939,-4.9942,-5.0226,-5.0231,-5.0235,0,0,0,0,0,0,-4.9732,-4.9748,-4.9875,-4.9812,-4.9827,-4.9827,-4.9867,-4.9865,-4.9887,-4.9892,-4.9891,-4.9871,-4.9902,-4.9913,-4.9998,-5.0056,-4.9941,-4.9947,-5.0221,-5.0227,-5.0233,-5.0326,0,0,0,0,0,0,-4.9727,-4.9747,-4.9792,-4.9814,-4.9831,-4.9953,-4.9871,-4.9869,-4.9897,-4.9889,-4.9913,-4.9913,-4.99,-4.9989,-5.0004,-5.0062,-4.9951,-5.0216,-5.0224,-5.0231,-5.0317,-5.0334,-5.0349,0,0,0,0,0,-4.9721,-4.9816,-4.9795,-4.9811,-4.9887,-4.9956,-4.9965,-4.9949,-4.9903,-4.9947,-4.995,-4.9913,-5.0048,-4.9998,-5.0014,-5.0076,-5.0212,-5.0221,-5.0231,-5.031,-5.0331,-5.0348,0,0,0,0,0,0,-4.9801,-4.9818,-4.9795,-4.9901,-4.9927,-4.9944,-5.0,-4.9971,-5.0011,-5.0002,-4.9978,-4.9984,-5.0074,-5.0083,-5.0028,-5.0186,-5.0122,-5.0135,-5.0177,-5.0197,-5.0212,-5.0207,-4.9956,0,0,0,0,0,-4.9831,-4.9887,-4.9898,-4.999,-5.0004,-5.0,-5.0029,-5.0014,-5.004,-5.0051,-5.006,-5.0086,-5.0134,-5.0166,-5.0211,-5.0318,-5.0321,-5.0368,-5.0384,-5.0397,-5.0408,-5.0463,-5.0483,-5.0266,-5.0266,-5.0266,0,0,-4.9893,-4.9909,-4.9946,-5.0006,-5.0025,-5.0081,-5.001,-5.0073,-5.0114,-5.006,-5.014,-5.0148,-5.0175,-5.0271,-5.0314,-5.0282,-5.0468,-5.0409,-5.0419,-5.0423,-5.0474,-5.0495,-5.0513,-5.0273,-5.0271,-5.027,0,0,-5.0034,-5.0054,-5.0131,-5.0151,-5.0181,-5.0177,-5.0195,-5.0216,-5.0219,-5.03,-5.026,-5.0307,-5.0391,-5.0411,-5.0432,-5.0579,-5.0546,-5.0594,-5.0676,-5.073,-5.0747,-5.0762,-5.0812,-5.0831,-5.0606,-5.0606,-5.0606,0,-5.0107,-5.0192,-5.0174,-5.0239,-5.0265,-5.022,-5.0296,-5.0316,-5.0359,-5.0377,-5.0341,-5.0443,-5.0458,-5.0557,-5.0593,-5.0613,-5.0631,-5.0591,-5.0746,-5.0761,-5.0775,-5.0822,-5.0841,-5.0612,-5.0611,-5.061,-5.061,0,-5.0279,-5.0338,-5.0397,-5.0439,-5.0472,-5.0543,-5.0533,-5.0568,-5.0549,-5.0549,-5.063,-5.0646,-5.0692,-5.0714,-5.0697,-5.081,-5.0789,-5.075,-5.0685,-5.0801,-5.0845,-5.0864,-5.062,-5.0618,-5.0616,-5.0614,0,0,-5.0473,-5.0503,-5.0525,-5.0542,-5.0571,-5.0615,-5.0683,-5.0728,-5.0758,-5.0788,-5.0842,-5.0914,-5.0877,-5.0901,-5.0885,-5.0933,-5.1045,-5.0887,-5.0887,-5.0914,-5.1168,-5.1196,-5.1217,-5.1023,-5.1026,-5.1029,-5.1165,0,-5.0614,-5.0732,-5.0716,-5.0828,-5.0881,-5.0837,-5.0895,-5.0918,-5.0919,-5.0962,-5.0962,-5.1012,-5.0961,-5.0975,-5.102,-5.1022,-5.1095,-5.1012,-5.1071,-5.1073,-5.1064,-5.1241,-5.1271,-5.1398,-5.1182,-5.1185,-5.1187,0,-5.0793,-5.083,-5.0948,-5.0966,-5.0988,-5.1041,-5.1079,-5.1122,-5.1146,-5.1143,-5.1169,-5.1144,-5.1209,-5.1143,-5.1231,-5.1175,-5.1198,-5.1202,-5.1206,-5.121,-5.1136,-5.1247,-5.1439,-5.1457,-5.1215,-5.1212,-5.121,0,-5.092,-5.0999,-5.1079,-5.1096,-5.112,-5.1157,-5.1169,-5.1189,-5.1216,-5.125,-5.1267,-5.1308,-5.133,-5.1361,-5.1347,-5.1301,-5.1436,-5.137,-5.1433,-5.1434,-5.1463,-5.1461,-5.1659,-5.1481,-5.1481,-5.1481,-5.148,0,-5.1078,-5.1151,-5.1136,-5.1186,-5.1265,-5.1245,-5.1324,-5.133,-5.1348,-5.1396,-5.136,-5.1406,-5.1385,-5.1428,-5.1417,-5.149,-5.1501,-5.1498,-5.1494,-5.1501,-5.1501,-5.1514,-5.1504,-5.1486,-5.1485,-5.1484,-5.1483,0,-5.1233,-5.1226,-5.131,-5.1325,-5.1331,-5.1389,-5.1401,-5.1445,-5.1443,-5.1504,-5.1517,-5.1512,-5.1561,-5.155,-5.1604,-5.1596,-5.1687,-5.1673,-5.168,-5.1675,-5.1739,-5.1732,-5.1951,-5.1978,-5.1785,-5.1787,-5.1788,0,-5.1333,-5.1388,-5.1409,-5.1439,-5.1453,-5.1502,-5.1529,-5.1511,-5.1541,-5.1571,-5.1612,-5.1658,-5.1693,-5.1773,-5.1773,-5.1814,-5.1799,-5.1873,-5.1804,-5.1808,-5.1797,-5.1794,-5.1798,-5.1886,-5.1888,-5.189,-5.1891,0,-5.151,-5.1504,-5.1546,-5.1587,-5.1621,-5.1652,-5.1679,-5.1705,-5.1688,-5.1723,-5.1773,-5.1801,-5.1855,-5.19,-5.1937,-5.1946,-5.1916,-5.1913,-5.1929,-5.1936,-5.1936,-5.1935,-5.1714,-5.1908,-5.1906,-5.1905,-5.1904,-5.1903,-5.1639,-5.1685,-5.1707,-5.1754,-5.1773,-5.1798,-5.1841,-5.1843,-5.1885,-5.1928,-5.1914,-5.197,-5.199,-5.2036,-5.205,-5.2092,-5.2064,-5.2089,-5.2094,-5.21,-5.2107,-5.1931,-5.2099,-5.2099,-5.2098,-5.2098,-5.2097,0,-5.1813,-5.1825,-5.1868,-5.1907,-5.1944,-5.1913,-5.1941,-5.1973,-5.2023,-5.2044,-5.208,-5.2136,-5.2179,-5.2183,-5.2222,-5.2255,-5.2242,-5.2266,-5.2263,-5.2265,-5.2131,-5.2112,-5.2276,-5.2276,-5.2276,-5.2276,-5.2276,-5.2276,-5.1908,-5.1983,-5.1979,-5.2062,-5.2073,-5.2128,-5.2146,-5.2169,-5.2186,-5.225,-5.2286,-5.2288,-5.2302,-5.2342,-5.2379,-5.2379,-5.2394,-5.2424,-5.2418,-5.2293,-5.2275,-5.2258,-5.2239,-5.2428,-5.2428,-5.2548,-5.2549,-5.255]}]]